Terug naar catalogus

STARLINK-11640

ActiefCommunicatieVLEO
NORAD 63314·PAYLOAD·🇺🇸 United States

Gelanceerd Mar 18, 2025 vanaf Cape Canaveral Space Force Station

Loading…

Volgende Passages (komende 24 uur)

TLE

VersSource: CelesTrak SupGP

Epoch: Sep 14, 2026, 22:17 UTC

1 63314C 25057H   26257.92895833  .00039431  00000+0  30624-3 0  2579
2 63314  43.0006 203.9739 0001375 251.3703 292.2804 15.70820603    12

Volg STARLINK-11640 in realtime met AllMySat

Download on the App Store